Powrót do katalogu

STARLINK-35097

AktywnyŁącznośćSSO
NORAD 65393·PAYLOAD·🇺🇸 United States

Wystrzelony Aug 30, 2025 z Vandenberg Space Force Base

Loading…

Następne Przeloty (najbliższe 24 godziny)

TLE

ŚwieżeSource: CelesTrak SupGP

Epoka: Sep 15, 2026, 03:17 UTC

1 65393C 25191Q   26258.13729167  .00007067  00000+0  21932-3 0  2580
2 65393  97.2843 124.2860 0001830  94.5929 135.1297 15.33440983    13

Śledź STARLINK-35097 w czasie rzeczywistym z AllMySat

Download on the App Store